Regional Weather Roundup
Issued by NWS

Home | Current Version | Previous Version | Text Only | Print | Product List | Glossary On
Versions: 1 2 3 4 5 6 7 8 9 10 11 12 13 14 15 16 17 18 19 20 21 22 23 24 25 26 27 28 29 30 31 32 33 34 35 36 37 38 39 40 41 42 43 44 45 46 47 48 49 50
000
ASUS43 KLSX 231557
RWRMO

WEATHER SUMMARY FOR MISSOURI
NATIONAL WEATHER SERVICE SPRINGFIELD MO
1100 AM CDT WED MAY 23 2018

NOTE: "FAIR" INDICATES FEW OR NO CLOUDS BELOW 12,000 FEET WITH NO
       SIGNIFICANT WEATHER AND/OR OBSTRUCTIONS TO VISIBILITY.
       CURRENT SKY AND/OR WEATHER CONDITIONS ARE NOT AVAILABLE FOR
       CHILLICOTHE AND FARMINGTON.

MOZ001>031-035>038-043-044-053-054-231700-
...NORTHERN AND WESTERN MISSOURI...

CITY           SKY/WX    TMP DP  RH WIND       PRES   REMARKS
KANSAS CTY INT MOSUNNY   82  68  62 S8        30.11S
ST JOSEPH      SUNNY     86  68  54 S8        30.09S
CHILLICOTHE      N/A     83  68  60 SE3       30.12S

$$
MOZ066>068-077>081-088>096-101>105-231700-
...SOUTHWEST MISSOURI...

CITY           SKY/WX    TMP DP  RH WIND       PRES   REMARKS
SPRINGFIELD    MOSUNNY   80  68  66 S8        30.13S
JOPLIN         MOSUNNY   80  68  66 W3        30.12S
BRANSON        PTSUNNY   81  68  65 SE8       30.16S

$$
MOZ032>034-039>042-045>050-055>058-069>072-231700-
...CENTRAL MISSOURI...

CITY           SKY/WX    TMP DP  RH WIND       PRES   REMARKS
COLUMBIA       NOT AVBL
JEFFERSON CITY SUNNY     80  66  62 VRB7      30.14R
ROLLA          SUNNY     79  66  64 E6        30.17S
SEDALIA        SUNNY     83  72  69 S7        30.14S
WARRENSBURG    SUNNY     81  68  65 SE5       30.12S

$$
MOZ051-052-059>065-231700-
...EAST CENTRAL MISSOURI...

CITY           SKY/WX    TMP DP  RH WIND       PRES   REMARKS
ST LOUIS INTL  MOSUNNY   79  63  57 SE8       30.17R

$$
MOZ072>076-082>087-097>100-106>115-231700-
...SOUTH CENTRAL AND SOUTHEAST MISSOURI...

CITY           SKY/WX    TMP DP  RH WIND       PRES   REMARKS
CAPE GIRARDEAU FAIR      81  65  58 E6        30.14R
POPLAR BLUFF   FAIR      83  69  62 E8        30.13S
WEST PLAINS    MOSUNNY   80  70  71 E5        30.17S

$$



USA.gov is the U.S. government's official web portal to all federal, state and local government web resources and services.